Regional Weather Roundup
Issued by NWS

Home | Current Version | Previous Version | Text Only | Print | Product List | Glossary Off
Versions: 1 2 3 4 5 6 7 8 9 10 11 12 13 14 15 16 17 18 19 20 21 22 23 24 25 26 27 28 29 30 31 32 33 34 35 36 37 38 39 40 41 42 43 44 45 46 47 48 49 50

000
ASUS43 KBIS 210510
RWRND

NORTH DAKOTA REGIONAL WEATHER ROUNDUP
NATIONAL WEATHER SERVICE BISMARCK ND
1100 PM CST FRI JAN 20 2017

NOTE: "FAIR" INDICATES FEW OR NO CLOUDS BELOW 12,000 FEET WITH NO
SIGNIFICANT WEATHER AND/OR OBSTRUCTIONS TO VISIBILITY.


NDZ001>003-009>011-017-210600-
NORTHWEST NORTH DAKOTA

CITY           SKY/WX    TMP DP  RH WIND       PRES   REMARKS
WILLISTON      FAIR      25  24  96 SW5       29.31F WCI  19
MINOT          CLOUDY    29  28  96 E3        29.32F FOG
MINOT AFB      CLOUDY    26  25  95 CALM      29.32S FOG
$$

NDZ018>021-031>035-040>046-210600-
SOUTHWEST NORTH DAKOTA

CITY           SKY/WX    TMP DP  RH WIND       PRES   REMARKS
BISMARCK       CLOUDY    32  31  96 W3        29.33F FOG
DICKINSON      FAIR      23  20  88 W12       29.28F WCI  12
GARRISON         N/A     24  23  96 W7        29.32S WCI  16
HETTINGER ARPT PTCLDY    26  23  88 NW12      29.31S WCI  16
$$

NDZ004>008-012>016-024-026-027-054-210600-
NORTHEAST NORTH DAKOTA

CITY           SKY/WX    TMP DP  RH WIND       PRES   REMARKS
GRAND FORKS    CLOUDY    36  33  89 SE12      29.43F
GRND FRKS AFB  CLOUDY    34  34  99 SE9       29.42F
DEVILS LAKE    MIX PCPN  33  32  96 SE12      29.38S VSB 1/2
$$

NDZ022-023-025-028>030-036>039-047>053-210600-
SOUTHEAST NORTH DAKOTA

CITY           SKY/WX    TMP DP  RH WIND       PRES   REMARKS
FARGO          CLOUDY    39  35  86 SE10      29.42S
JAMESTOWN      FOG       33  33 100 SE10      29.35R VSB 1/4
$$





USA.gov is the U.S. government's official web portal to all federal, state and local government web resources and services.